Weather History for Douglas, WY

Change the Weather History Date:

Sunday, December 23, 2012

  Actual Average Record
Temperature  
Mean Temperature 29 °F 24 °F  
Max Temperature 45 °F 37 °F 46 °F (1999)
Min Temperature 13 °F 10 °F -17 °F (2004)
Degree Days  
Heating Degree Days 36 41  
Month to date heating degree days 663 939  
Since 1 July heating degree days 2210 2761  
Cooling Degree Days 0 0  
Month to date cooling degree days 0 0  
Year to date cooling degree days 831 486  
Moisture  
Dew Point 8 °F    
Average Humidity 43    
Maximum Humidity 67    
Minimum Humidity 19    
Precipitation  
Precipitation 0.00 in 0.01 in 0.10 in (2009)
Month to date precipitation T 0.31  
Year to date precipitation 5.26 13.30  
Sea Level Pressure  
Sea Level Pressure 29.89 in    
Wind  
Wind Speed 18 mph (West)    
Max Wind Speed 40 mph    
Max Gust Speed 49 mph    
Visibility 10 miles    
Events      
T = Trace of Precipitation, MM = Missing Value Source: NWS Daily Summary

Daily Weather History Graph

Daily Weather History Graph

Search for Another Location

Airport:

Trip Planner

Search our weather history database for the weather conditions in past years. The results will help you decide how hot, cold, wet, or windy it might be!

Date:

Astronomy

Dec. 23, 2012 Rise Set
Actual Time 7:30 AM MST 4:31 PM MST
Civil Twilight 6:57 AM MST 5:04 PM MST
Nautical Twilight 6:22 AM MST 5:39 PM MST
Astronomical Twilight 5:47 AM MST 6:14 PM MST
Moon 1:26 PM MST (12/23) 3:12 AM MST (12/23)
Length of Visible Light 10h 06m
Length of Day
9h 01m
Waxing Gibbous, 82% of the Moon is Illuminated
Dec 23
Waxing Gibbous
Dec 28
Full
Jan 4
Last Quarter
Jan 11
New
Jan 18
First Quarter

Hourly Weather History & Observations

Time (MST) Temp. Windchill Dew Point Humidity Pressure Visibility Wind Dir Wind Speed Gust Speed Precip Events Conditions
12:53 AM 37.0 °F 33.3 °F -2.9 °F 18% 29.78 in 10.0 mi West 4.6 mph - N/A   Clear
1:53 AM 42.1 °F 31.0 °F 3.0 °F 20% 29.72 in 10.0 mi West 32.2 mph 42.6 mph N/A   Clear
2:53 AM 39.9 °F 29.2 °F 5.0 °F 23% 29.77 in 10.0 mi WNW 25.3 mph 32.2 mph N/A   Clear
3:53 AM 37.9 °F 28.2 °F 6.1 °F 27% 29.80 in 10.0 mi West 18.4 mph 29.9 mph N/A   Clear
4:53 AM 37.9 °F 27.9 °F 10.0 °F 32% 29.82 in 10.0 mi West 19.6 mph 28.8 mph N/A   Clear
5:53 AM 39.0 °F 26.4 °F 12.0 °F 33% 29.84 in 10.0 mi West 34.5 mph 44.9 mph N/A   Clear
6:53 AM 37.0 °F 24.9 °F 14.0 °F 39% 29.86 in 10.0 mi West 27.6 mph 36.8 mph N/A   Clear
7:53 AM 36.0 °F 24.4 °F 14.0 °F 41% 29.87 in 10.0 mi WSW 23.0 mph 32.2 mph N/A   Clear
8:53 AM 37.9 °F 25.7 °F 12.0 °F 35% 29.87 in 10.0 mi WSW 29.9 mph 39.1 mph N/A   Clear
9:53 AM 41.0 °F 30.5 °F 9.0 °F 27% 29.88 in 10.0 mi West 26.5 mph 43.7 mph N/A   Clear
10:53 AM 43.0 °F 31.5 °F 10.0 °F 26% 29.87 in 10.0 mi West 36.8 mph 48.3 mph N/A   Clear
11:53 AM 44.1 °F 32.7 °F 9.0 °F 24% 29.89 in 10.0 mi West 39.1 mph 49.5 mph N/A   Clear
12:53 PM 43.0 °F 32.4 °F 10.0 °F 26% 29.90 in 10.0 mi WNW 31.1 mph 41.4 mph N/A   Clear
1:53 PM 42.1 °F 32.1 °F 10.0 °F 27% 29.89 in 10.0 mi WNW 25.3 mph 34.5 mph N/A   Clear
2:53 PM 43.0 °F 33.8 °F 9.0 °F 25% 29.90 in 10.0 mi West 23.0 mph 34.5 mph N/A   Clear
3:53 PM 42.1 °F 35.7 °F 6.1 °F 23% 29.91 in 10.0 mi WNW 11.5 mph 21.9 mph N/A   Mostly Cloudy
4:53 PM 34.0 °F 28.0 °F 3.9 °F 28% 29.96 in 10.0 mi NW 6.9 mph - N/A   Overcast
5:53 PM 27.0 °F - 3.0 °F 36% 30.00 in 10.0 mi Calm Calm - N/A   Clear
6:53 PM 21.0 °F - 1.9 °F 44% 30.02 in 10.0 mi Calm Calm - N/A   Clear
7:53 PM 23.0 °F 18.4 °F 7.0 °F 50% 30.01 in 10.0 mi South 3.5 mph - N/A   Clear
8:53 PM 21.9 °F - 9.0 °F 58% 29.99 in 10.0 mi Calm Calm - N/A   Clear
9:53 PM 15.1 °F 6.4 °F 3.9 °F 61% 29.97 in 10.0 mi NW 5.8 mph - N/A   Clear
10:53 PM 16.0 °F 6.3 °F 7.0 °F 68% 29.97 in 10.0 mi ESE 6.9 mph - N/A   Clear
11:53 PM 21.9 °F 13.4 °F 12.0 °F 66% 29.93 in 10.0 mi SE 6.9 mph - N/A   Overcast